User: anonymous   Login
Location: Treviso
(45.6669°N, 12.2430°E)
Time: 00:30:22
(UTC+02:00)
Language:

ISS - Orbit

View from above orbital plane
View from above orbital plane
View from above satellite
View from above satellite

Ground track
Ground track

The orbit data is extracted from the following two-line orbital elements,

1 25544U 98067A   17178.51747640  .00016717  00000-0  10270-3 0  9049
2 25544  51.6392 346.8403 0004822 328.6769  31.4095 15.54094296 23353
Epoch (UTC): 27 June 2017 12:25:09
Eccentricity: 0.0004822
inclination: 51.6392°
perigee height: 401 km
apogee height: 408 km
right ascension of ascending node: 346.8403°
argument of perigee: 328.6769°
revolutions per day: 15.54094296
mean anomaly at epoch: 31.4095°
orbit number at epoch: 2335

The dashed part of the orbit path shows where the satellite is in the earth's shadow,  

DLR